Location: Colonia Mina de C?rbuni
(46.1667°N, 22.7167°E)
Time: 05:51:33
(UTC+00:00)

Tiros 1 - Pass Details

Date: 29 April 2024
Orbit: 624 x 657 km, 48.4° (Epoch: 25 May)

Event Time Altitude Azimuth Distance (km) Brightness Sun altitude
Exits shadow 00:32:41 15° 132° (SE) 1,680 9.2 -22.9°
Drops below altitude 10° 00:33:30 10° 129° (SE) 1,992 9.6 -22.9°
Sets 00:35:50 0° 125° (SE) 2,894 10.5 -22.6°
